Location: Eitze
(52.9840°N, 9.6894°E)
Time: 23:53:30
(UTC+00:00)

Cosmos 1707 - Pass Details

Date: 19 May 2025
Orbit: 423 x 430 km, 82.5° (Epoch: 15 June)

Event Time Altitude Azimuth Distance (km) Brightness Sun altitude
Exits shadow 22:54:09 46° 189° (S) 596 2.5 -16.9°
Maximum altitude 22:55:04 89° 110° (ESE) 441 2.2 -16.9°
Drops below altitude 10° 22:58:27 10° 11° (N) 1,553 6.3 -16.9°
Sets 23:00:31 0° 12° (NNE) 2,428 7.6 -16.9°
